SPROUT (39770 NORAD) Tracking and Keplerian Element Data

This shows tracking and keplerian element data for the satellite.

Feedback or suggestion? Click here.




ElementValue
Catalog39770
NameSPROUT
Epoch Orbit46102
Epoch Day325.1291356
Epoch Year2022
RAAN83.3874
Inclination97.9543
Eccentricity0.0007727
Argument of Perigee286.8396
Mean Anonmoly73.1936
Mean Motion14.93314089
Decay Rate7.599E-05
L11 39770U 14029E 22325.12913560 .00007599 00000+0 73009-3 0 9994
L22 39770 97.9543 83.3874 0007727 286.8396 73.1936 14.93314089461027



Live tracking and technical data element details for SPROUT (NORAD 39770). SPROUT can be tracked NOW for your location showing map with azimuth and elevation plus other details from your city location.







IsCatalogInMostPopularTable: catalog: 39770, numindb: 544
Update: records affected: 1



GetName: 39770 SPROUT

Hit Count: updated at: Fri, 02 Dec 2022 12:57:21 GMT